Location: Klein M�hlingen
(51.9472°N, 11.7453°E)
Time: 09:25:47
(UTC+00:00)

Cosmos 1954 Rocket - Pass Details

Date: 09 April 2020
Orbit: 752 x 781 km, 74.1° (Epoch: 24 May)

Event Time Altitude Azimuth Distance (km) Brightness Sun altitude
Rises 19:29:14 0° 195° (SSW) 3,226 7.1 -13.3°
Reaches altitude 10° 19:31:37 10° 193° (SSW) 2,299 6.3 -13.6°
Maximum altitude 19:36:48 70° 111° (ESE) 813 3.9 -14.2°
Drops below altitude 10° 19:41:59 10° 29° (NNE) 2,298 6.5 -14.9°
Sets 19:44:21 0° 27° (NNE) 3,225 7.3 -15.2°
